Location: Bishop�s Knoyle
(51.0728°N, 2.1714°W)
Time: 04:09:57
(UTC+00:00)

CENTAUR R/B - Pass Details

Date: 23 January 2021
Orbit: 742 x 1446 km, 63.5° (Epoch: 02 March)

Event Time Altitude Azimuth Distance (km) Brightness Sun altitude
Rises 06:40:17 0° 203° (SSW) 3,400 5.3 -12.0°
Reaches altitude 10° 06:42:37 10° 199° (SSW) 2,544 4.7 -11.6°
Maximum altitude 06:48:22 55° 123° (ESE) 1,181 3.4 -10.7°
Drops below altitude 10° 06:55:16 10° 48° (NE) 3,032 5.5 -9.7°
Sets 06:58:16 0° 45° (NE) 4,107 6.1 -9.3°
